Weather History for Twin Falls, ID

Change the Weather History Date:

Thursday, August 29, 2013

  Actual Average Record
Temperature  
Mean Temperature 82 °F -  
Max Temperature 94 °F 85 °F 97 °F (1998)
Min Temperature 69 °F 53 °F 45 °F (1980)
Degree Days  
Heating Degree Days 0 1  
Month to date heating degree days 0 7  
Since 1 June heating degree days 55 100  
Since 1 July heating degree days 0 13  
Cooling Degree Days 17 5  
Month to date cooling degree days 360 222  
Year to date cooling degree days 1016 608  
Since 1 June cooling degree days 991 586  
Growing Degree Days 31 (Base 50)    
Moisture  
Dew Point 52 °F    
Average Humidity 47    
Maximum Humidity 70    
Minimum Humidity 23    
Precipitation  
Precipitation T in 0.01 in 0.09 in (2003)
Month to date precipitation T 0.29  
Year to date precipitation 3.19 6.85  
Sea Level Pressure  
Sea Level Pressure 29.89 in    
Wind  
Wind Speed 9 mph (SSE)    
Max Wind Speed 25 mph    
Max Gust Speed 32 mph    
Visibility 10 miles    
Events      
T = Trace of Precipitation, MM = Missing Value Source: NWS Daily Summary

Daily Weather History Graph

Daily Weather History Graph

Search for Another Location

Airport:

Trip Planner

Search our weather history database for the weather conditions in past years. The results will help you decide how hot, cold, wet, or windy it might be!

Date:

Astronomy

Aug. 29, 2013 Rise Set
Actual Time 7:00 AM MDT 8:16 PM MDT
Civil Twilight 6:30 AM MDT 8:45 PM MDT
Nautical Twilight 5:55 AM MDT 9:20 PM MDT
Astronomical Twilight 5:19 AM MDT 9:57 PM MDT
Moon 12:51 AM MDT (8/29) 3:52 PM MDT (8/29)
Length of Visible Light 14h 14m
Length of Day
13h 16m
Last Quarter, 37% of the Moon is Illuminated
Aug 29
Last Quarter
Sep 5
New
Sep 12
First Quarter
Sep 19
Full
Sep 26
Last Quarter

Hourly Weather History & Observations

Time (MDT) Temp. Heat Index Dew Point Humidity Pressure Visibility Wind Dir Wind Speed Gust Speed Precip Events Conditions
12:53 AM 75.9 °F - 48.9 °F 38% 29.85 in 10.0 mi South 13.8 mph - N/A   Clear
1:53 AM 73.9 °F - 48.9 °F 41% 29.85 in 10.0 mi South 12.7 mph - N/A   Clear
2:53 AM 73.9 °F - 50.0 °F 43% 29.84 in 10.0 mi South 12.7 mph - N/A   Clear
3:53 AM 73.9 °F - 50.0 °F 43% 29.85 in 10.0 mi South 12.7 mph - N/A   Mostly Cloudy
4:53 AM 77.0 °F - 48.9 °F 37% 29.86 in 10.0 mi South 15.0 mph - N/A   Mostly Cloudy
5:53 AM 75.0 °F - 48.0 °F 38% 29.87 in 10.0 mi South 19.6 mph 27.6 mph N/A   Partly Cloudy
6:53 AM 69.1 °F - 53.1 °F 57% 29.90 in 10.0 mi ESE 8.1 mph - 0.00 in   Clear
7:53 AM 72.0 °F - 51.1 °F 48% 29.92 in 10.0 mi ENE 4.6 mph - N/A   Partly Cloudy
8:53 AM 69.1 °F - 59.0 °F 70% 29.96 in 10.0 mi SSW 3.5 mph - 0.00 in   Mostly Cloudy
9:53 AM 77.0 °F - 57.0 °F 50% 29.96 in 10.0 mi North 3.5 mph - N/A   Clear
10:53 AM 81.0 °F 81.3 °F 59.0 °F 47% 29.94 in 10.0 mi NNE 6.9 mph - N/A   Clear
11:53 AM 84.0 °F 83.8 °F 59.0 °F 43% 29.93 in 10.0 mi North 6.9 mph - N/A   Partly Cloudy
12:53 PM 91.9 °F 89.5 °F 54.0 °F 27% 29.90 in 10.0 mi Variable 6.9 mph - N/A   Partly Cloudy
1:53 PM 91.9 °F - 52.0 °F 26% 29.90 in 10.0 mi NW 8.1 mph - N/A   Clear
2:53 PM 91.9 °F - 52.0 °F 26% 29.88 in 10.0 mi North 6.9 mph - 0.00 in   Clear
3:53 PM 93.9 °F - 52.0 °F 24% 29.87 in 10.0 mi NW 12.7 mph - N/A   Partly Cloudy
4:53 PM 91.9 °F - 52.0 °F 26% 29.86 in 10.0 mi NW 11.5 mph - N/A   Clear
5:53 PM 93.0 °F - 50.0 °F 23% 29.86 in 10.0 mi North 6.9 mph - N/A   Clear
6:53 PM 89.1 °F - 50.0 °F 26% 29.87 in 10.0 mi Calm Calm - N/A   Clear
7:53 PM 82.0 °F 81.3 °F 54.0 °F 38% 29.88 in 10.0 mi ESE 3.5 mph - N/A   Clear
8:53 PM 80.1 °F - 51.1 °F 36% 29.91 in 10.0 mi SSE 16.1 mph - N/A   Clear
9:53 PM 75.9 °F - 50.0 °F 40% 29.92 in 10.0 mi South 10.4 mph - N/A   Clear
10:53 PM 75.9 °F - 48.9 °F 38% 29.91 in 10.0 mi South 10.4 mph - N/A   Clear
11:53 PM 73.0 °F - 48.0 °F 41% 29.92 in 10.0 mi South 10.4 mph - N/A   Clear